Location: Newark
(52.3500°N, 175.9667°E)
Time: 21:52:13
(UTC+00:00)

Transit 4A - Pass Details

Date: 24 April 2021
Orbit: 871 x 974 km, 66.8° (Epoch: 16 May)

Event Time Altitude Azimuth Distance (km) Brightness Sun altitude
Rises 11:48:23 0° 227° (SW) 3,614 - -24.4°
Reaches altitude 10° 11:50:58 10° 230° (SW) 2,659 - -24.4°
Exits shadow 11:53:54 29° 238° (WSW) 1,640 8.9 -24.5°
Maximum altitude 11:57:08 67° 313° (NW) 999 8.1 -24.5°
Drops below altitude 10° 12:03:09 10° 37° (NE) 2,599 10.9 -24.6°
Sets 12:05:40 0° 40° (NE) 3,528 11.6 -24.6°
